Portada
METAR-TAF:

METAR-TAF

Aeropuertos :

Aeropuerto de Castellón-Costa Azahar

Castellón de la Plana, España

latitud: 40-12-35N, longitud: 0-04-11E, altitud: 360 m

Observación

El informe se hizo hace 18 minutos, a las 01:30 UTC
Viento 2 kt del sur
Temperatura 23°C
Humedad 44%
Presión 1018 hPa
Visibilidad 10 km o más

METAR: LECH 170130Z AUTO 17002KT 9999 NCD 23/10 Q1018

Hora: 03:48 (01:48 UTC)


TAF: falta

Observaciones y pronósticos meteorológicos de más de 4000 aeropuertos (mensajes METAR y TAF).

Los puntos amarillos y rojos representan las estaciones disponibles.

Ponga el ratón en el punto deseado para ver el nombre de la estación.

Haga clic para ver las observaciones y los pronósticos meteorológicos.

Para cambiar el mapa : haga clic en los botones verdes con una cruz de color negro para hacer un zoom, en el botón verde con un guión para alejar o en las flechas verdes para mapas adyacentes.


METAR-TAF: